Regional Weather Roundup
Issued by NWS

Home | Current Version | Previous Version | Text Only | Print | Product List | Glossary Off
Versions: 1 2 3 4 5 6 7 8 9 10 11 12 13 14 15 16 17 18 19 20 21 22 23 24 25 26 27 28 29 30 31 32 33 34 35 36 37 38 39 40 41 42 43 44 45 46 47 48 49 50

000
ASUS44 KMEG 061200
RWRTN
TENNESSEE HOURLY STATE WEATHER ROUNDUP
NATIONAL WEATHER SERVICE MEMPHIS TN
700 AM CDT FRI MAY 06 2016

TNZ002-004-019-021-049-052-054-088>092-061300-
WEST TENNESSEE

CITY           SKY/WX    TMP DP  RH WIND       PRES   REMARKS
MEMPHIS INTL   SUNNY     52  46  80 CALM      30.08R
NWS MEMPHIS      N/A     47 N/A N/A MISG        N/A
JACKSON        SUNNY     46  44  93 SW3       30.08R
DYERSBURG      SUNNY     50  46  87 W5        30.08R
UNION CITY     SUNNY     50  48  93 CALM      30.06R
LEXINGTON      SUNNY     43  41  93 CALM      30.04R
$$

TNZ008-025-027-028-033-062-065-066-061300-
NORTH MIDDLE TENNESSEE

CITY           SKY/WX    TMP DP  RH WIND       PRES   REMARKS
NASHVILLE      MOSUNNY   49  44  83 W5        30.01R
CLARKSVILLE    SUNNY     48  45  89 NW6       30.03R
COOKEVILLE     SUNNY     45  45 100 CALM      29.97R
CROSSVILLE     SUNNY     46  43  89 NW7       29.96R
$$

TNZ061-075-076-078-094-096-097-061300-
SOUTH MIDDLE TENNESSEE

CITY           SKY/WX    TMP DP  RH WIND       PRES   REMARKS
TULLAHOMA      SUNNY     43  43 100 CALM      30.00R
WINCHESTER     SUNNY     43  41  93 CALM      30.00S
MCMINNVILLE    SUNNY     45  45 100 CALM      29.99R
COLUMBIA       SUNNY    N/A N/A N/A CALM      30.01R
SHELBYVILLE    SUNNY     43  43 100 CALM      30.02R
$$

TNZ017-018-042-046-047-061300-
NORTHEAST TENNESSEE

CITY           SKY/WX    TMP DP  RH WIND       PRES   REMARKS
TRI CITIES     PTSUNNY   50  43  77 W7        29.88R
$$

TNZ012-013-036-069-073-074-061300-
CENTRAL EAST TENNESSEE

CITY           SKY/WX    TMP DP  RH WIND       PRES   REMARKS
KNOXVILLE      MOSUNNY   47  45  93 SW5       29.94R
OAK RIDGE      SUNNY     48  43  82 CALM      29.96R
GATLINBURG     PTSUNNY   46  43  87 CALM      29.93R
$$

TNZ083-085-099-061300-
SOUTHEAST TENNESSEE

CITY           SKY/WX    TMP DP  RH WIND       PRES   REMARKS
CHATTANOOGA    MOSUNNY   49  45  86 CALM      29.96R
$$

SKY/WX REPORTED AS FAIR MEANS FEW OR NO CLOUDS BELOW
12 THOUSAND FEET.





USA.gov is the U.S. government's official web portal to all federal, state and local government web resources and services.